Weather History for Cartersville, GA

Change the Weather History Date:

Tuesday, May 14, 2013

  Actual Average Record
Temperature  
Mean Temperature 60 °F 67 °F  
Max Temperature 80 °F 79 °F 83 °F (2014)
Min Temperature 40 °F 55 °F 40 °F (2013)
Degree Days  
Heating Degree Days 6    
Cooling Degree Days 0 4  
Month to date cooling degree days 4 35  
Year to date cooling degree days 30 60  
Growing Degree Days 10 (Base 50)    
Moisture  
Dew Point 48 °F    
Average Humidity 68    
Maximum Humidity 100    
Minimum Humidity 36    
Precipitation  
Precipitation 0.00 in 0.14 in 2.28 in (1972)
Month to date precipitation 3.89 1.87  
Year to date precipitation 9.44 20.00  
Sea Level Pressure  
Sea Level Pressure 30.18 in    
Wind  
Wind Speed 1 mph (South)    
Max Wind Speed 9 mph    
Max Gust Speed 15 mph    
Visibility 10 miles    
Events      
T = Trace of Precipitation, MM = Missing Value Source: NWS Daily Summary

Daily Weather History Graph

Daily Weather History Graph

Search for Another Location

Airport:

Trip Planner

Search our weather history database for the weather conditions in past years. The results will help you decide how hot, cold, wet, or windy it might be!

Date:

Astronomy

May. 14, 2013 Rise Set
Actual Time 6:38 AM EDT 8:33 PM EDT
Civil Twilight 6:10 AM EDT 9:01 PM EDT
Nautical Twilight 5:37 AM EDT 9:34 PM EDT
Astronomical Twilight 5:01 AM EDT 10:10 PM EDT
Moon 10:16 AM EDT (5/14) No Moon Set
Length of Visible Light 14h 50m
Length of Day
13h 55m
Waxing Crescent, 19% of the Moon is Illuminated
May 14
Waxing Crescent
May 18
First Quarter
May 25
Full
May 31
Last Quarter
Jun 8
New

Hourly Weather History & Observations

Time (EDT) Temp. Dew Point Humidity Pressure Visibility Wind Dir Wind Speed Gust Speed Precip Events Conditions
12:53 AM 46.0 °F 43.0 °F 89% 30.21 in 10.0 mi Calm Calm - N/A   Clear
1:53 AM 44.1 °F 43.0 °F 96% 30.21 in 10.0 mi Calm Calm - N/A   Clear
2:53 AM 42.1 °F 41.0 °F 96% 30.20 in 10.0 mi Calm Calm - N/A   Clear
3:53 AM 42.1 °F 41.0 °F 96% 30.20 in 10.0 mi Calm Calm - N/A   Clear
4:53 AM 41.0 °F 41.0 °F 100% 30.20 in 10.0 mi Calm Calm - N/A   Clear
5:53 AM 41.0 °F 41.0 °F 100% 30.20 in 10.0 mi Calm Calm - N/A   Clear
6:53 AM 39.9 °F 39.9 °F 100% 30.22 in 10.0 mi Calm Calm - N/A   Clear
7:53 AM 48.0 °F 46.0 °F 93% 30.24 in 10.0 mi Calm Calm - N/A   Clear
8:53 AM 55.9 °F 48.0 °F 75% 30.25 in 10.0 mi Calm Calm - N/A   Clear
9:53 AM 62.1 °F 50.0 °F 65% 30.25 in 10.0 mi Calm Calm - N/A   Clear
10:53 AM 66.9 °F 45.0 °F 45% 30.25 in 10.0 mi Calm Calm - N/A   Clear
11:53 AM 71.1 °F 48.0 °F 44% 30.24 in 10.0 mi Calm Calm - N/A   Clear
12:53 PM 73.0 °F 48.9 °F 42% 30.23 in 10.0 mi Calm Calm - N/A   Clear
1:53 PM 75.0 °F 51.1 °F 43% 30.21 in 10.0 mi Variable 3.5 mph - N/A   Clear
2:53 PM 77.0 °F 51.1 °F 40% 30.18 in 10.0 mi Variable 4.6 mph - N/A   Clear
3:53 PM 79.0 °F 52.0 °F 39% 30.14 in 10.0 mi Variable 4.6 mph - N/A   Clear
4:53 PM 79.0 °F 52.0 °F 39% 30.13 in 10.0 mi Variable 4.6 mph - N/A   Clear
5:53 PM 80.1 °F 52.0 °F 38% 30.11 in 10.0 mi Variable 3.5 mph - N/A   Clear
6:53 PM 78.1 °F 53.1 °F 42% 30.10 in 10.0 mi Variable 4.6 mph - N/A   Clear
7:53 PM 75.0 °F 54.0 °F 48% 30.10 in 10.0 mi Calm Calm - N/A   Clear
8:53 PM 66.0 °F 55.9 °F 70% 30.10 in 10.0 mi Calm Calm - N/A   Clear
9:53 PM 63.0 °F 55.0 °F 75% 30.12 in 10.0 mi South 3.5 mph - N/A   Clear
10:53 PM 64.0 °F 55.0 °F 73% 30.12 in 10.0 mi Calm Calm - N/A   Clear
11:53 PM 66.0 °F 55.0 °F 68% 30.12 in 10.0 mi Variable 3.5 mph - N/A   Clear